Location: Monroe
(41.9160°N, 83.3980°W)
Time: 16:46:27
(UTC-05:00)

Daily predictions for brighter satellites

Satellite Brightness Start Highest point End
(mag) Time Altitude Azimuth Time Altitude Azimuth Time Altitude Azimuth
IRS-1A Rocket 4.2 17:22:08 10° SSE 17:27:37 79° ENE 17:33:09 10° NNW
Cosmos 1269 Rocket 4.0 17:22:19 10° NNW 17:27:39 73° ENE 17:32:56 10° SSE
Hubble Space Telescope 3.8 17:34:02 10° SSW 17:34:32 10° S 17:35:03 10° S
Cosmos 1606 4.3 17:31:43 10° SSW 17:35:23 38° WNW 17:39:06 10° N
ASTEX 1 4.2 17:30:33 10° N 17:35:27 56° W 17:40:19 10° SSW
Cosmos 1536 2.8 17:31:27 10° N 17:35:29 63° E 17:39:31 10° SSE
Cosmos 2251 Rocket 4.3 17:33:42 10° N 17:38:22 29° ENE 17:43:00 10° ESE
Cosmos 2263 Rocket 3.3 17:33:14 10° SW 17:38:32 42° WNW 17:43:54 10° NNE
Meteor 1-11 Rocket 4.1 17:36:58 10° NNW 17:42:30 68° W 17:47:57 10° S
ISS -3.0 17:42:56 10° SW 17:46:09 57° SE 17:49:08 12° ENE
Cosmos 1633 3.3 17:44:36 10° NNW 17:48:08 55° W 17:51:38 10° S
Cosmos 1461 4.5 17:47:09 10° NW 17:50:50 38° WSW 17:54:31 10° S
MSX 4.0 17:47:51 10° SE 17:53:21 48° ENE 17:58:51 10° N
SL-27 R/B 3.1 17:51:02 10° N 17:54:28 35° ENE 17:57:50 10° SE
Okean 1 Rocket 4.3 17:52:11 10° NNW 17:56:20 45° W 18:00:27 10° SSW
Cosmos 1812 3.6 17:53:12 10° SSE 17:56:31 28° E 17:59:53 10° NNE
SJ-12 3.9 17:54:32 10° SSE 17:58:38 85° ENE 18:02:46 10° N
CZ-4 R/B 1.7 17:56:54 10° S 18:01:06 75° WSW 18:05:16 10° NNW
Okean 3 4.3 17:57:41 10° SSW 18:01:53 55° W 18:06:06 10° N
COSMO-SKYMED 1 3.5 17:58:07 10° NE 18:01:53 28° E 18:05:37 10° SSE
Cosmos 1544 Rocket 3.7 17:58:26 10° N 18:02:49 52° E 18:07:10 10° SSE
Cosmos 158 Rocket 4.1 17:57:43 10° NNW 18:03:07 88° WSW 18:08:23 10° SSE
Cosmos 1844 Rocket 2.6 17:59:12 10° SSW 18:04:45 73° ESE 18:10:22 10° NNE
Cosmos 1975 Rocket 3.2 18:01:52 10° SSW 18:06:10 73° W 18:10:30 10° N
GEOS 3 Rocket 3.9 18:02:32 10° ESE 18:07:21 44° NE 18:12:11 10° NNW
CZ-2C R/B 2.5 18:02:50 10° SSE 18:07:46 86° WSW 18:12:54 10° NNW
Cosmos 1238 Rocket 2.3 18:08:41 10° SSE 18:11:32 44° E 18:13:47 15° NNE
Meteor 1-12 Rocket 4.5 18:06:07 10° N 18:11:43 49° ENE 18:17:22 10° SSE
MONITOR-E 4.4 18:09:15 10° SSE 18:12:20 47° ENE 18:15:26 10° N
Cosmos 1844 3.7 18:09:30 10° S 18:15:00 65° ESE 18:20:25 10° NNE
CZ-3A R/B 3.7 18:10:20 10° WSW 18:15:01 61° NNW 18:35:17 14° ENE
Cosmos 1975 3.4 18:12:51 10° N 18:16:37 35° ENE 18:20:19 10° SE
BREEZE-M DEB (TANK) 2.6 18:15:41 10° W 18:17:43 33° NNW 18:18:34 23° NNE
Cosmos 1536 Rocket 3.7 18:18:22 10° S 18:22:41 51° E 18:27:02 10° NNE
CORIOLIS 4.4 18:17:29 10° S 18:22:53 74° WSW 18:28:19 10° NNW
COSMOS 2441 4.3 18:18:33 10° SSE 18:23:22 72° ENE 18:28:16 10° N
SPOT 3 Rocket 4.3 18:21:18 10° S 18:26:24 57° W 18:31:31 10° NNW
SL-24 DEB 4.2 18:22:33 10° NNE 18:27:17 63° E 18:31:56 10° S
SMAP 3.9 18:23:45 10° S 18:28:17 52° W 18:32:50 10° NNW
YAOGAN 1 3.5 18:25:31 10° S 18:29:43 52° W 18:33:58 10° NNW
Cosmos 2278 Rocket 2.3 18:27:17 10° S 18:32:45 55° ESE 18:36:34 20° NE
COSMOS 2406 4.3 18:28:38 10° NW 18:34:04 47° WSW 18:39:31 10° S
SL-8 Rocket 4.4 18:28:34 10° NNW 18:34:40 66° W 18:40:44 10° S
IDEFIX/ARIANE 42P 3.8 18:37:52 10° S 18:42:48 42° W 18:47:44 10° NNW
Abrixas 4.2 18:42:11 10° NW 18:44:08 22° N 18:44:08 22° N
Cosmos 2366 rocket 4.2 18:38:26 10° N 18:44:48 76° W 18:51:05 10° S
Cosmos 2218 Rocket 4.4 18:40:23 10° NNW 18:46:37 64° W 18:52:44 10° S
Cosmos 1484 Rocket 2.8 18:42:58 10° S 18:46:44 75° WSW 18:50:29 10° NNW
Okean 1-7 Rocket 4.4 18:43:33 10° SSE 18:46:43 31° ESE 18:46:43 31° ESE
OTV 4 2.9 18:46:21 10° WSW 18:48:28 18° SSW 18:49:39 15° S
CZ-3B DEB 2.4 18:45:35 10° WSW 18:49:30 77° NW 18:55:17 23° NE
USA 234 4.2 18:45:29 17° NNE 18:49:59 39° NNW 18:55:56 10° W
SKYMED 2 3.5 18:46:13 13° NNE 18:50:06 85° WNW 18:54:26 10° SSW
Genesis I 4.4 18:48:33 10° NNW 18:50:56 28° N 18:50:56 28° N
Cosmos 1455 Rocket 3.7 18:48:12 10° NNW 18:52:31 56° W 18:56:50 10° S
Timation 2 Rocket 4.3 18:49:20 10° NNW 18:55:55 50° ENE 18:59:44 25° ESE
Cosmos 2082 Rocket 2.6 18:52:21 10° N 18:57:40 40° ENE 18:57:45 40° ENE
Cosmos 1241 Rocket 4.5 18:53:32 10° NNW 19:00:12 79° ENE 19:06:46 10° SE
Cosmos 1833 Rocket 3.3 18:58:25 10° N 19:02:46 36° NE 19:02:46 36° NE
BREEZE-M DEB (TANK) 4.1 18:58:47 10° WNW 19:04:33 31° N 19:05:27 29° NNE
Cosmos 375 4.2 19:01:22 10° NW 19:05:51 79° NE 19:05:55 78° ENE
NOSS 3-3 (A) 3.9 19:00:27 10° SSW 19:06:38 86° ESE 19:09:41 34° NE
NOSS 3-3 (C) 3.9 19:00:33 10° SSW 19:06:44 85° ESE 19:09:45 35° NE
SL-8 R/B 3.5 19:03:47 10° SW 19:08:33 76° SSE 19:09:02 68° E
Cosmos 1809 Rocket 4.4 19:04:04 10° N 19:10:15 85° W 19:16:22 10° S
Cosmos 1500 3.6 19:08:02 10° NNW 19:11:50 62° W 19:15:36 10° S
Okean 1 4.3 19:07:56 10° SSW 19:11:50 47° WNW 19:14:31 19° N
Cosmos 2239 Rocket 4.4 19:05:49 10° N 19:11:58 58° E 19:18:01 10° SSE
Meteor 1-28 Rocket 3.4 19:15:04 71° W 19:15:04 71° W 19:18:42 10° SSW
ATLAS 2AS CENTAUR R/B 3.5 19:07:30 10° NW 19:15:22 59° WSW 19:22:40 10° SSE
NOAA 12 4.0 19:10:39 10° SSE 19:15:57 88° WSW 19:21:15 10° NNW
METEOR-M 4.0 19:11:24 10° SSE 19:16:43 80° ENE 19:22:05 10° N
Cosmos 1821 Rocket 3.8 19:14:15 10° N 19:20:20 65° E 19:26:22 10° SSE
ISS -1.0 19:20:01 10° W 19:21:49 22° NW 19:21:49 22° NW
Cosmos 1346 Rocket 3.9 19:29:06 10° SSW 19:32:45 41° W 19:32:45 41° W
Nadezhda 3 Rocket 4.5 19:35:23 10° SSW 19:41:27 58° W 19:47:38 10° N
SL-24 R/B - RUBIN 2 4.5 19:42:03 10° SW 19:48:22 82° WNW 19:48:47 78° N
ATLAS 3B CENTAUR R/B 4.0 19:46:52 10° WSW 19:58:30 31° SSW 20:00:10 28° S
Cosmos 2297 4.2 19:54:32 10° SW 19:59:27 57° W 19:59:27 57° W
Cosmos 2278 Rocket 4.1 20:12:41 10° WSW 20:17:11 24° NW 20:18:28 22° NNW
FALCON 9 R/B 3.6 20:13:52 10° W 20:26:28 46° SSW 20:26:28 46° SSW
Cosmos 2082 Rocket 4.1 20:36:43 10° NW 20:39:41 25° WNW 20:39:41 25° WNW
